Tracking 29065 objects as of 22-Jul-2024
HD Live streaming from Space Station
objects crossing your sky now

COSMOS 1275 DEB

Track COSMOS 1275 DEB now!
10-day predictions


NORAD ID: 42210
Int'l Code: 1981-053UA
Perigee: 927.0 km
Apogee: 1,088.1 km
Inclination: 83.0 °
Period: 105.1 minutes
Semi major axis: 7378 km
RCS: Unknown
Launch date: June 4, 1981
Source: Commonwealth of Independent States (former USSR) (CIS)
Launch site: PLESETSK MISSILE AND SPACE COMPLEX (PKMTR)

Note: This is SATELLITE DEBRIS
Your satellite tracking list
Your tracking list is empty




NASA's NSSDC Master Catalog

Two Line Element Set (TLE):
1 42210U 81053UA  24202.89815022  .00001899  00000-0  20650-2 0  9993
2 42210  83.0077  58.5148 0109185 136.0134 285.1062 13.69774376532028
Source of the keplerian elements: AFSPC